Time,TemperatureF,DewpointF,PressureIn,WindDirection,WindDirectionDegrees,WindSpeedMPH,WindSpeedGustMPH,Humidity,HourlyPrecipIn,Conditions,Clouds,dailyrainin,SoftwareType,DateUTC
2013-05-20 00:32:00,81.0,-99.9,-100.00,SE,130,0.0,6.0,-999,-99.99,,,-99.99,,2013-05-20 07:32:00,
2013-05-20 00:42:00,81.0,-99.9,-100.00,SE,130,0.0,6.0,-999,-99.99,,,-99.99,,2013-05-20 07:42:00,
2013-05-20 01:52:00,79.0,-99.9,-100.00,NE,44,4.0,4.0,-999,-99.99,,,-99.99,,2013-05-20 08:52:00,
2013-05-20 02:00:00,78.0,-99.9,-100.00,SE,127,3.0,4.0,-999,-99.99,,,-99.99,,2013-05-20 09:00:00,
2013-05-20 02:02:00,79.0,-99.9,-100.00,NE,44,4.0,4.0,-999,-99.99,,,-99.99,,2013-05-20 09:02:00,
2013-05-20 02:33:00,78.0,-99.9,-100.00,SE,127,3.0,4.0,-999,-99.99,,,-99.99,,2013-05-20 09:33:00,
2013-05-20 02:43:00,78.0,-99.9,-100.00,SE,127,3.0,4.0,-999,-99.99,,,-99.99,,2013-05-20 09:43:00,
2013-05-20 02:53:00,78.0,-99.9,-100.00,SE,127,3.0,4.0,-999,-99.99,,,-99.99,,2013-05-20 09:53:00,
2013-05-20 03:10:00,77.0,-99.9,-100.00,East,97,1.0,4.0,-999,-99.99,,,-99.99,,2013-05-20 10:10:00,
2013-05-20 03:53:00,77.0,-99.9,-100.00,East,97,1.0,4.0,-999,-99.99,,,-99.99,,2013-05-20 10:53:00,
2013-05-20 04:00:00,77.0,-99.9,-100.00,NE,46,2.0,4.0,-999,-99.99,,,-99.99,,2013-05-20 11:00:00,
2013-05-20 04:03:00,77.0,-99.9,-100.00,East,97,1.0,4.0,-999,-99.99,,,-99.99,,2013-05-20 11:03:00,
2013-05-20 04:52:00,77.0,-99.9,-100.00,NE,46,2.0,4.0,-999,-99.99,,,-99.99,,2013-05-20 11:52:00,
2013-05-20 07:00:00,80.0,-99.9,-100.00,WSW,240,1.0,5.0,-999,-99.99,,,-99.99,,2013-05-20 14:00:00,
2013-05-20 07:53:00,80.0,-99.9,-100.00,WSW,240,1.0,5.0,-999,-99.99,,,-99.99,,2013-05-20 14:53:00,
2013-05-20 08:34:00,87.0,-99.9,-100.00,East,92,0.0,2.0,-999,-99.99,,,-99.99,,2013-05-20 15:34:00,
2013-05-20 08:43:00,87.0,-99.9,-100.00,East,92,0.0,2.0,-999,-99.99,,,-99.99,,2013-05-20 15:43:00,
2013-05-20 08:53:00,87.0,-99.9,-100.00,East,92,0.0,2.0,-999,-99.99,,,-99.99,,2013-05-20 15:53:00,
2013-05-20 10:55:00,94.0,-99.9,-100.00,NW,323,4.0,6.0,-999,-99.99,,,-99.99,,2013-05-20 17:55:00,
2013-05-20 11:33:00,94.0,-99.9,-100.00,NW,323,4.0,6.0,-999,-99.99,,,-99.99,,2013-05-20 18:33:00,
2013-05-20 11:42:00,94.0,-99.9,-100.00,NW,323,4.0,6.0,-999,-99.99,,,-99.99,,2013-05-20 18:42:00,
2013-05-20 12:04:00,94.0,-99.9,-100.00,ESE,108,1.0,7.0,-999,-99.99,,,-99.99,,2013-05-20 19:04:00,
2013-05-20 12:12:00,94.0,-99.9,-100.00,ESE,108,1.0,7.0,-999,-99.99,,,-99.99,,2013-05-20 19:12:00,
2013-05-20 12:22:00,94.0,-99.9,-100.00,ESE,108,1.0,7.0,-999,-99.99,,,-99.99,,2013-05-20 19:22:00,
2013-05-20 14:50:00,96.0,-99.9,-100.00,ESE,111,1.0,9.0,-999,-99.99,,,-99.99,,2013-05-20 21:50:00,
2013-05-20 15:33:00,96.0,-99.9,-100.00,ESE,111,1.0,9.0,-999,-99.99,,,-99.99,,2013-05-20 22:33:00,
2013-05-20 15:42:00,96.0,-99.9,-100.00,ESE,111,1.0,9.0,-999,-99.99,,,-99.99,,2013-05-20 22:42:00,
2013-05-20 16:20:00,101.0,-99.9,-100.00,East,93,2.0,2.0,-999,-99.99,,,-99.99,,2013-05-20 23:20:00,
2013-05-20 16:22:00,101.0,-99.9,-100.00,SE,144,0.0,2.0,-999,-99.99,,,-99.99,,2013-05-20 23:22:00,
2013-05-20 16:32:00,102.0,-99.9,-100.00,SSW,198,0.0,1.0,-999,-99.99,,,-99.99,,2013-05-20 23:32:00,
2013-05-20 16:42:00,102.0,-99.9,-100.00,SSW,198,0.0,1.0,-999,-99.99,,,-99.99,,2013-05-20 23:42:00,
2013-05-20 16:53:00,100.0,-99.9,-100.00,SSE,165,1.0,2.0,-999,-99.99,,,-99.99,,2013-05-20 23:53:00,
2013-05-20 17:01:00,101.0,-99.9,-100.00,East,93,2.0,2.0,-999,-99.99,,,-99.99,,2013-05-21 00:01:00,
2013-05-20 17:12:00,101.0,-99.9,-100.00,East,93,2.0,2.0,-999,-99.99,,,-99.99,,2013-05-21 00:12:00,
2013-05-20 17:52:00,98.0,-99.9,-100.00,ENE,61,3.0,7.0,-999,-99.99,,,-99.99,,2013-05-21 00:52:00,
2013-05-20 18:01:00,98.0,-99.9,-100.00,ENE,61,3.0,7.0,-999,-99.99,,,-99.99,,2013-05-21 01:01:00,
2013-05-20 18:40:00,98.0,-99.9,-100.00,SE,144,0.0,1.0,-999,-99.99,,,-99.99,,2013-05-21 01:40:00,
2013-05-20 19:02:00,99.0,-99.9,-100.00,East,82,3.0,3.0,-999,-99.99,,,-99.99,,2013-05-21 02:02:00,
2013-05-20 19:11:00,99.0,-99.9,-100.00,East,82,3.0,3.0,-999,-99.99,,,-99.99,,2013-05-21 02:11:00,
2013-05-20 19:22:00,98.0,-99.9,-100.00,SE,144,0.0,1.0,-999,-99.99,,,-99.99,,2013-05-21 02:22:00,
2013-05-20 19:32:00,98.0,-99.9,-100.00,SE,144,0.0,1.0,-999,-99.99,,,-99.99,,2013-05-21 02:32:00,
2013-05-20 20:22:00,96.0,-99.9,-100.00,East,89,2.0,3.0,-999,-99.99,,,-99.99,,2013-05-21 03:22:00,
2013-05-20 20:30:00,91.0,-99.9,-100.00,ENE,63,2.0,2.0,-999,-99.99,,,-99.99,,2013-05-21 03:30:00,
2013-05-20 20:33:00,96.0,-99.9,-100.00,East,95,5.0,5.0,-999,-99.99,,,-99.99,,2013-05-21 03:33:00,
2013-05-20 20:43:00,96.0,-99.9,-100.00,East,95,5.0,5.0,-999,-99.99,,,-99.99,,2013-05-21 03:43:00,
2013-05-20 21:23:00,91.0,-99.9,-100.00,ENE,63,2.0,2.0,-999,-99.99,,,-99.99,,2013-05-21 04:23:00,
2013-05-20 23:30:00,86.0,-99.9,-100.00,WNW,302,2.0,8.0,-999,-99.99,,,-99.99,,2013-05-21 06:30:00,